www.pogodaiklimat.ru

Погода и климат >> Архив погоды >> Пакистан >> Lahore City


ПОГОДА в Lahore City

  • Прогноз погоды в Lahore City
  • Монитор погоды в Lahore City
  • Климат города

АРХИВ ПОГОДЫ в Lahore City

Время (UTC), дата Ветер
(напр.,м/с)
 
Видим.   Явления Облачность Т
(С)
Тd
(С)
f
(%)
Тe
(С)
Тes
(С)
Комфортность P
(гПа)
Po
(гПа)
Тmin
(С)
Tmax
(С)
R
(мм)
R24
(мм)
S
(см)
09 12.11 СЗ 1 2000 м дым {морось} 8/5 1000 м
[Sc Ac As]
+24.5 +13.5 50 +27 +29 жарко 1012.1 1000.0 0.0
12 12.11 штиль 0 2000 м дым 6/4 300 м
[Sc Ac trans]
+24.0 +15.8 60 +27 +27 жарко 1011.9 987.5 +25.5
15 12.11 штиль 0 2000 м дым 3/0
[Ac trans]
+20.0 +14.0 68 +22 +22 комфорт 1012.1 1000.0
18 12.11 штиль 0 2000 м дым 4/0
[]
+19.0 +13.8 72 +20 +20 1012.0 1004.4
21 12.11 штиль 0 2000 м дымка ясно +17.5 +14.0 80 +17 +17 1012.5 1000.0
00 13.11 штиль 0 2000 м дым 6/4 300 м
[Sc Ac trans]
+16.5 +12.9 79 +16 +16 1011.5 986.4
03 13.11 штиль 0 2000 м в посл. час морось 9/9 300 м
[Sc As op]
+17.5 +13.1 75 +18 +18 1011.8 986.8 +15.9 0.0
06 13.11 штиль 0 4000 м дым 8/4 1200 м
[Sc As trans]
+22.5 +11.9 51 +25 +29 комфорт 1011.3 986.8
09 13.11 С 1 4000 м мгла 6/4 300 м
[Sc Ac trans]
+26.5 +12.9 43 +28 +32 жарко 1010.1 1000.0
12 13.11 С 2 4000 м дым 5/3 1260 м
[St Ac lent Ci sp]
+24.0 +13.9 53 +26 +26 жарко 1009.6 1004.5 +27.0
15 13.11 штиль 0 50 км дым ?/? +20.5 +12.2 59 +22 +22 комфорт 1010.6 1000.0
18 13.11 СВ 2 4000 м дым 10/4 1260 м
[Sc Ac As]
+20.0 +12.0 60 +22 +22 комфорт 1010.8 986.1
21 13.11 штиль 0 4000 м дым 9/5 300 м
[Sc Ac As]
+17.5 +12.1 71 +18 +18 1010.5 983.3
00 14.11 штиль 0 4000 м дым 9/5 300 м
[Sc Ac As]
+16.0 +11.4 74 +16 +16 1010.7 985.6
03 14.11 штиль 0 4000 м дым 6/4 300 м
[Sc Ac trans]
+16.0 +11.4 74 +16 +17 1012.2 987.1 +15.5
06 14.11 С 2 4000 м дым 6/4 300 м
[Sc Ac trans]
+21.0 +11.1 53 +24 +28 комфорт 1012.3 987.5
09 14.11 С 2 4000 м дым {гроза, морось} 9/8 300 м
[Sc As op]
+21.5 +10.6 50 +23 +24 комфорт 1010.3 1000.0 0.0
12 14.11 С 1 2000 м гроза с градом {дождь} 10/8 300 м
[Cb cap As op]
+20.0 +14.6 71 +23 +23 комфорт 1012.2 1003.9 +22.3 0.4
15 14.11 штиль 0 2000 м дым {дождь} 10/8 300 м
[Sc As op]
+17.5 +12.1 71 +18 +18 1013.2 1000.0 1
18 14.11 СВ 1 4000 м дым 3/3 300 м
[Sc]
+16.5 +13.9 85 +18 +18 1014.0 988.9
21 14.11 штиль 0 2000 м дымка ясно +15.0 +13.2 89 +15 +15 1014.1 1000.0
00 15.11 С 1 2000 м дымка ясно +14.0 +12.2 89 +14 +14 1014.4 989.0
03 15.11 штиль 0 4000 м дым ясно +13.5 +10.6 83 +13 +14 1017.0 991.6 +12.5
06 15.11 С 1 4000 м дым ясно +20.0 +12.0 60 +23 +33 комфорт 1019.6 994.6
09 15.11 З 1 4000 м мгла ясно +23.5 +11.1 46 +25 +33 комфорт 1016.9 1000.0
12 15.11 штиль 0 4000 м дым ясно +22.5 +13.0 55 +25 +25 комфорт 1016.3 991.6 +24.9
15 15.11 штиль 0 4000 м дым ясно +18.5 +12.3 67 +19 +19 1017.3 989.3
18 15.11 штиль 0 4000 м дым ясно +16.5 +10.9 69 +16 +16 1017.4 992.3
21 15.11 штиль 0 4000 м дым ясно +15.5 +10.8 74 +15 +15 1016.1 1000.0
00 16.11 штиль 0 4000 м дым ясно +15.0 +11.3 79 +15 +15 1015.7 990.4
03 16.11 штиль 0 4000 м дым ясно +15.0 +10.3 73 +15 +16 1016.3 991.0 +14.3
06 16.11 З 1 4000 м мгла 5/0
[Ac trans Ci fib]
+21.0 +10.0 49 +24 +31 комфорт 1016.1 991.3
09 16.11 З 1 4000 м мгла ясно +25.0 +9.6 38 +26 +33 жарко 1013.3 1000.0
12 16.11 штиль 0 4000 м мгла ясно +23.5 +11.1 46 +25 +25 комфорт 1012.3 1003.3 +26.1
15 16.11 штиль 0 4000 м дым ясно +21.0 +12.2 57 +23 +23 комфорт 1012.9 1000.0
18 16.11 штиль 0 4000 м дым ясно +19.5 +12.4 64 +21 +21 комфорт 1013.8 988.9
21 16.11 штиль 0 4000 м дым ясно +17.0 +12.5 75 +17 +17 1013.7 986.1
00 17.11 штиль 0 4000 м дым ясно +16.0 +11.4 74 +16 +16 1012.4 987.3
03 17.11 штиль 0 4000 м дым ясно +15.5 +10.8 74 +15 +17 1013.6 988.4 +14.5
06 17.11 С 1 4000 м мгла 5/0
[Ci fib]
+22.5 +9.7 44 +24 +32 комфорт 1013.5 988.8
09 17.11 С 1 4000 м мгла 6/0
[Ac trans Ci fib]
+26.0 +9.9 36 +27 +32 жарко 1010.4 1000.0
12 17.11 штиль 0 4000 м дым 5/0
[Ci fib]
+23.0 +12.6 52 +26 +26 жарко 1010.1 985.5 +26.9
15 17.11 штиль 0 4000 м дым ясно +19.0 +12.8 67 +20 +20 1011.7 981.8
18 17.11 штиль 0 4000 м дым ясно +17.0 +11.5 70 +17 +17 1012.2 987.2
21 17.11 штиль 0 4000 м дым ясно +16.0 +10.4 69 +16 +16 1012.5 1000.0
00 18.11 штиль 0 2000 м дым ясно +14.5 +10.7 78 +14 +14 1012.0 986.8
03 18.11 штиль 0 2000 м дымка ясно +13.5 +10.6 83 +13 +14 1014.2 988.8 +13.1
06 18.11 штиль 0 4000 м мгла ясно +22.0 +10.2 47 +24 +34 комфорт 1014.4 989.9
09 18.11 СЗ 1 4000 м мгла 4/0
[Ac trans]
+25.0 +12.0 44 +27 +32 жарко 1012.4 1000.0
12 18.11 штиль 0 4000 м дым ясно +24.0 +13.9 53 +26 +26 жарко 1012.0 1003.4 +26.4
15 18.11 штиль 0 4000 м дым ясно +19.0 +13.8 72 +20 +20 1013.8 1000.0
18 18.11 штиль 0 4000 м дым 4/0
[Ac trans]
+18.0 +12.7 71 +18 +18 1014.9 989.9
21 18.11 штиль 0 4000 м дым 3/0
[Ac trans]
+16.5 +12.0 75 +16 +16 1015.1 1000.0
00 19.11 штиль 0 4000 м дым ясно +15.0 +11.3 79 +15 +15 1014.9 989.6
03 19.11 штиль 0 2000 м дым 1/0
[Ac trans]
+15.0 +10.3 73 +15 +16 1017.2 991.9 +13.3
06 19.11 С 1 4000 м дым ясно +21.0 +11.1 53 +24 +33 комфорт 1018.6 993.7

 

Местоположение метеостанции Lahore City (Пакистан): широта 31.55 долгота 74.33 высота над уровнем моря 215 м.

В архиве по умолчанию представлена погода в Lahore City за последнюю неделю. Архивные данные за месяц целиком и за предыдущие месяцы, начиная с января 2011 года, Вы можете получить, выбрав интересующий диапазон дат из раскрывающегося списка и нажав кнопку "Ввод!".


*Определитесь, кто Вы:
робот инопланетянин человек

Внимание! Время в таблицах - всемирное. Для получения местного времени необходимо прибавить поправку, которая в Lahore City равна 5 ч.

Смотрите также архив погоды в соседних городах и на ближайших метеорологических станциях:

Погода в Amritsar (Punjab, Индия) (52 км)
Погода в Sialkot (Пакистан) (107 км)
Погода в Faisal Abad (Пакистан) (117 км)
Погода в Jammu (Jammu and Kashmir, Индия) (133 км)
Погода в Jhelum (Пакистан) (164 км)
Погода в Sargodha (Пакистан) (166 км)
Погода в Katra (Jammu and Kashmir, Индия) (170 км)
Погода в Ludhiana (Punjab, Индия) (170 км)
Погода в Una (Himachal Pradesh, Индия) (184 км)
Погода в Sri Ganganagar (Rajasthan, Индия) (185 км)

Пояснения к столбцам:

Ветер - указаны скорость ветра в м/с - средняя за 10 мин, порывы в срок и между сроками (в фигурных скобках) и направление, откуда дует ветер: С - северный, СВ - северо-восточный, В - восточный, ЮВ - юго-восточный, Ю - южный, ЮЗ - юго-западный, З - западный, СЗ - северо-западный.
Видимость - горизонтальная дальность видимости в метрах или километрах. При видимости от 1 до 10 км при отсутствии осадков обычно наблюдается дымка, при ухудшении видимости до 1 км и менее - туман. В сухую погоду видимость может ухудшаться дымом, пылью или мглою.
Явления - указаны атмосферные явления, наблюдавшиеся в срок или в последний час перед сроком; фигурными скобками обозначены явления, наблюдавшиеся между сроками (за 1-3 часа до срока); квадратными скобками обозначены град или гололедные отложения с указанием их диаметра в мм.
Облачность - указаны через наклонную черту общая и нижняя облачность в баллах и высота нижней границы облаков в метрах; квадратными скобками обозначены формы облаков: Ci - перистые, Cs - перисто-слоистые, Cc - перисто-кучевые, Ac - высококучевые, As - высокослоистые, Sc - слоисто-кучевые, Ns - слоисто-дождевые, Cu - кучевые, Cb - кучево-дождевые. Подробнее классификацию облаков см. в Атласе облаков (PDF).
T - Температура воздуха - температура, измеренная на высоте 2 м над землей.
Td - Температура точки росы - температура, при понижении до которой содержащийся в воздухе водяной пар достигнет насыщения.
f - Относительная влажность воздуха - влажноcть воздуха, измеренная на высоте 2 м над землей.
Te - Эффективная температура - температура, которую ощущает одетый по сезону человек в тени. Характеристика душности погоды. При расчете учитывается влияние влажности воздуха и скорости ветра на теплоощущения человека.
Tes - Эффективная температура на солнце - температура, которую ощущает человек, с поправкой на солнечный нагрев. Характеристика знойности погоды. Зависит от высоты солнца над горизонтом, облачности и скорости ветра. Ночью, в пасмурную погоду, а также при ветре 12 м/с и более поправка равна нулю.
P - Атмосферное давление - приведенное к уровню моря атмосферное давление.
Po - Атмосферное давление - измеренное на уровне метеостанции атмосферное давление.
Tmin - Минимальная температура - минимум температуры воздуха на высоте 2 м над землей.
Tmax - Максимальная температура - максимум температуры воздуха на высоте 2 м над землей.
R - Количество осадков - Количество выпавших осадков за период времени, мм. При наведении курсора мыши на число - период времени, за который выпало указанное количество осадков.
R24 - Количество осадков - Количество выпавших осадков за 24 часа, мм.
S - Снежный покров - Высота снежного покрова, см. При наведении курсора мыши на число - состояние снежного покрова и степень покрытия местности в баллах.